User: anonymous   Login
Location: Sobotiste
(48.7170°N, 17.4000°E)
Time: 07:21:07
(UTC+01:00)
Language:

Oscar 19 - Orbit

View from above orbital plane
View from above orbital plane
View from above satellite
View from above satellite

Ground track
Ground track

The orbit is defined by the following mean orbital elements,

1 20442U          26069.94663594 +.00000000 +00000-0 +80767-4 0 00006
2 20442  98.8937  89.0093 0012385 130.9647 229.2611 14.34088549    05
Epoch (UTC): 10 March 2026 22:43:09
Eccentricity: 0.0012385
inclination: 98.8937°
perigee height: 769 km
apogee height: 787 km
right ascension of ascending node: 89.0093°
argument of perigee: 130.9647°
revolutions per day: 14.34088549
mean anomaly at epoch: 229.2611°

The dashed part of the orbit path shows where the satellite is in the earth's shadow,  

DLR